Voltar ao catálogo

TITAN 34B R/B

AtivoHEO
NORAD 7688·ROCKET BODY·🇺🇸 United States

Lançado Mar 10, 1975 de Vandenberg Space Force Base

Loading…

Próximas Passagens (próximas 24 horas)

TLE

AtualizadoSource: Space-Track

Época: Sep 14, 2026, 14:50 UTC

1 07688U 75017B   26257.61808561  .00014510  00000-0  71335-3 0  9999
2 07688  63.2713 107.2368 5291818 273.6596  30.2236  5.21822829120886

Acompanhe TITAN 34B R/B em tempo real com AllMySat

Download on the App Store